This is the latest recevied weather packets stored in our database for station/object K8GLX. If no packets are shown the sender has not sent any weather packets the latest 10 day(s).
| Time | Temp. | Humidity | Pressure | Rain* | Wind** | Luminosity | Snow |
|---|---|---|---|---|---|---|---|
| 1777727534 | 3.33° C | 77% | 1017 hPa | 0 mm | - | 87 W/m² | - |
| 1777727229 | 3.33° C | 79% | 1017.2 hPa | 0 mm | - | 70 W/m² | - |
| 1777726934 | 3.33° C | 79% | 1017.3 hPa | 0 mm | - | 64 W/m² | - |
| 1777726748 | 3.33° C | 78% | 1017.1 hPa | 0 mm | - | 56 W/m² | - |
| 1777726462 | 3.33° C | 79% | 1017.3 hPa | 0 mm | - | 48 W/m² | - |
| 1777726029 | 3.89° C | 79% | 1017.2 hPa | 0 mm | - | 54 W/m² | - |
| 1777725734 | 3.33° C | 79% | 1017.3 hPa | 0 mm | - | 62 W/m² | - |
| 1777725429 | 3.33° C | 79% | 1017.2 hPa | 0 mm | - | 59 W/m² | - |
| 1777725134 | 3.33° C | 80% | 1017.1 hPa | 0 mm | - | 54 W/m² | - |
| 1777724829 | 3.33° C | 80% | 1017 hPa | 0.25 mm | - | 50 W/m² | - |
| 1777724534 | 3.33° C | 82% | 1017 hPa | 0.25 mm | - | 47 W/m² | - |
| 1777724228 | 3.33° C | 85% | 1016.9 hPa | 0.25 mm | - | 47 W/m² | - |
| 1777723935 | 3.33° C | 87% | 1017.1 hPa | 0.25 mm | - | 44 W/m² | - |
| 1777723629 | 3.33° C | 88% | 1017 hPa | 0.25 mm | - | 39 W/m² | - |
| 1777723335 | 3.33° C | 89% | 1016.9 hPa | 0.25 mm | - | 38 W/m² | - |
| 1777723029 | 3.33° C | 90% | 1016.8 hPa | 0.25 mm | - | 35 W/m² | - |
| 1777722735 | 3.33° C | 90% | 1016.8 hPa | 0.25 mm | - | 30 W/m² | - |
| 1777722428 | 3.33° C | 91% | 1016.7 hPa | 0.25 mm | - | 24 W/m² | - |
| 1777722135 | 3.33° C | 91% | 1016.7 hPa | 0.25 mm | - | 24 W/m² | - |
| 1777721829 | 3.33° C | 91% | 1016.9 hPa | 0 mm | - | 17 W/m² | - |
| 1777721534 | 3.33° C | 91% | 1016.9 hPa | 0 mm | - | 14 W/m² | - |
| 1777721229 | 3.33° C | 91% | 1016.6 hPa | 0 mm | - | 11 W/m² | - |
| 1777720935 | 2.78° C | 91% | 1016.7 hPa | 0 mm | - | 12 W/m² | - |
| 1777720630 | 2.78° C | 91% | 1016.7 hPa | 0 mm | - | 13 W/m² | - |
| 1777720462 | 2.78° C | 91% | 1016.7 hPa | 0 mm | - | 12 W/m² | - |
* Rain latest hour (hover to see other rain measurements)
** Current wind speed in m/s (hover to see current wind gust speed)